Weather observations for the past three days for
John F Kennedy Memorial Airport
Imperial (Metric)
Date Time (cdt) Wind (mph) Vis. (mi.) Weather Sky Cond. Temperature (ºF) Relative Humidity Wind Chill (°F) Heat Index (°F) Pressure Precipitation (in)
Air Dwpt 6 hour altimeter (in) sea level (mb) 1 hr 3 hr 6 hr
Max. Min.
23 18:53 NE 12 10.00 Fair CLR 70 54 77 70 57% 29.85 1011.0
23 17:53 N 10 10.00 Fair CLR 73.9 57 56% 29.84 1010.6
23 16:53 N 6 10.00 Fair CLR 75.9 59 56% 78 29.83 1010.3
23 15:53 NE 9 10.00 Partly Cloudy FEW043 SCT060 SCT075 72 57.9 61% 29.83 1010.1
23 14:53 W 9 10.00 Overcast BKN041 OVC048 75.9 61 60% 78 29.81 1009.6
23 13:53 SW 7 10.00 Mostly Cloudy BKN047 BKN055 73.9 59 60% 29.82 1009.9
23 12:53 W 9 10.00 Fair CLR 73 57.9 73 52 59% 29.83 1010.1
23 11:53 SW 5 10.00 Mostly Cloudy BKN043 BKN060 69.1 59 70% 29.84 1010.5
23 10:53 SW 5 10.00 Overcast OVC055 63 55 76% 29.84 1010.7
23 09:53 W 6 10.00 Overcast OVC075 62.1 53.1 73% 29.84 1010.6
23 08:53 SW 7 10.00 Mostly Cloudy BKN110 61 53.1 75% 29.84 1010.7
23 07:53 SW 6 10.00 Fair CLR 57 50 78% 29.84 1010.6
23 06:53 SW 9 10.00 Fair CLR 52 48 52 48 86% 29.84 1010.6
23 05:53 SW 6 10.00 Mostly Cloudy BKN060 48.9 46.9 93% 47 29.83 1010.6
23 04:53 SW 6 10.00 Overcast OVC055 48.9 48 97% 47 29.82 1010.1
23 03:53 W 6 10.00 Overcast FEW021 OVC050 50 48.9 96% 48 29.81 1010.0
23 02:53 SW 5 10.00 Partly Cloudy FEW015 FEW020 SCT050 48 46.9 96% 47 29.82 1010.1
23 01:53 SW 3 10.00 Overcast OVC011 50 48 93% 29.81 1009.8
23 00:53 W 3 10.00 Overcast OVC012 51.1 48.9 54 51.1 92% 29.82 1010.2 0.37
22 23:53 Calm 10.00 Overcast FEW008 BKN015 OVC060 51.1 48.9 92% 29.83 1010.4
22 22:53 N 6 10.00 Overcast FEW008 BKN016 OVC070 51.1 48.9 92% 29.83 1010.3 0.01
22 21:53 NE 9 7.00 Light Rain BKN012 BKN018 OVC080 52 50 93% 29.82 1010.0 0.14 0.36
22 20:53 N 12 3.00 Heavy Rain Fog/Mist SCT005 BKN019 OVC040 54 52 93% 29.82 1010.1 0.2
22 19:53 N 7 1.50 Light Rain Fog/Mist OVC010 53.1 51.1 93% 29.81 1009.7 0.02
22 18:53 N 6 10.00 Overcast OVC010 54 51.1 57 53.1 90% 29.81 1009.6
22 17:53 NE 10 9.00 Overcast OVC006 53.1 52 96% 29.78 1008.6
22 16:53 N 8 6.00 Fog/Mist OVC010 53.1 50 89% 29.84 1010.7
22 15:53 NE 15 G 20 10.00 Overcast OVC007 54 51.1 90% 29.84 1010.8
22 14:53 N 12 2.50 Fog/Mist OVC002 55 54 96% 29.85 1010.9
22 13:53 N 10 0.75 Fog/Mist VV002 55.9 55 97% 29.85 1011.0
22 12:53 N 12 0.50 Fog VV002 59 57.9 62.1 55.9 96% 29.85 1011.1 0.01 0.51
22 11:53 N 13 0.25 Light Rain Fog VV002 57.9 57 97% 29.87 1011.6
22 10:53 NE 9 2.00 Fog/Mist OVC002 62.1 60.1 93% 29.88 1011.8
22 09:53 NE 8 2.00 Fog/Mist OVC002 60.1 59 96% 29.89 1012.2 0.01 0.5
22 08:53 N 5 5.00 Light Rain Fog/Mist OVC003 57.9 55.9 93% 29.91 1012.9 0.2
22 07:53 NE 12 3.00 Rain Fog/Mist BKN003 OVC048 57 55 93% 29.92 1013.4 0.29
22 06:53 NE 6 1.25 Heavy Rain Fog/Mist SCT003 BKN016 OVC033 57 55.9 57 55 96% 29.94 1014.0 0.13 0.18
22 05:53 N 12 3.00 Light Rain Fog/Mist OVC002 55.9 54 93% 29.95 1014.4 0.04
22 04:53 E 5 10.00 Overcast SCT006 OVC014 55.9 54 93% 29.96 1014.8 0.01
22 03:53 E 6 10.00 Overcast OVC014 55.9 53.1 90% 29.98 1015.3
22 02:53 N 5 10.00 Overcast SCT016 BKN024 OVC045 55.9 53.1 90% 30.01 1016.3
22 01:53 N 5 10.00 Overcast OVC044 55.9 54 93% 30.04 1017.3
22 00:53 NE 3 10.00 Partly Cloudy FEW017 SCT042 55.9 53.1 62.1 55.9 90% 30.05 1017.9
21 23:53 N 6 10.00 Overcast OVC016 57 54 90% 30.08 1018.9
21 22:53 N 3 10.00 Overcast OVC019 57 54 90% 30.1 1019.7
21 21:53 N 6 10.00 Overcast OVC025 57 54 90% 30.11 1019.9
21 20:53 N 3 10.00 Overcast OVC023 59 54 83% 30.11 1019.8
21 19:53 NE 6 10.00 Overcast OVC025 60.1 54 80% 30.11 1019.8
21 18:53 NE 6 10.00 Mostly Cloudy BKN026 62.1 55 68 59 78% 30.15 1021.0
21 17:53 NE 6 10.00 Fair CLR 62.1 55.9 80% 30.14 1020.9
21 16:53 N 6 10.00 Mostly Cloudy BKN026 BKN036 63 57 81% 30.16 1021.7
21 15:53 N 8 10.00 Mostly Cloudy BKN036 64.9 57.9 78% 30.18 1022.1
21 14:53 Vrbl 7 10.00 Mostly Cloudy BKN037 66.9 60.1 79% 30.19 1022.6
21 13:53 Vrbl 6 10.00 A Few Clouds FEW110 64 57.9 81% 30.21 1023.4
21 12:53 Calm 10.00 Overcast SCT005 BKN031 OVC041 60.1 55.9 60.1 55 86% 30.23 1024.0 0.03
21 11:53 Calm 10.00 Overcast BKN005 OVC025 57 55 93% 30.24 1024.3 0.02
21 10:53 NE 7 10.00 Overcast FEW007 OVC100 57 54 90% 30.24 1024.5 0.01
21 09:53 N 3 10.00 Overcast FEW006 SCT034 OVC045 57 54 90% 30.26 1025.2
21 08:53 Calm 10.00 Overcast BKN033 OVC041 57 53.1 87% 30.25 1024.8
21 07:53 Calm 10.00 Overcast OVC035 55 52 90% 30.26 1025.2
21 06:53 Calm 10.00 Overcast OVC041 55 52 55 48.9 90% 30.27 1025.4
21 05:53 Calm 10.00 Overcast OVC045 54 51.1 90% 30.26 1025.1
21 04:53 Calm 10.00 Overcast OVC045 54 52 93% 30.26 1025.0
21 03:53 Calm 10.00 Overcast OVC050 53.1 51.1 93% 30.27 1025.2
21 02:53 Calm 10.00 Mostly Cloudy BKN050 50 48.9 96% 30.28 1025.6
21 01:53 Calm 10.00 Fair CLR 50 48.9 96% 30.28 1025.7
21 00:53 Calm 6.00 Fog/Mist CLR 48.9 48 59 48.9 97% 30.29 1026.0
20 23:53 Calm 10.00 Fair CLR 50 48.9 96% 30.3 1026.5
20 22:53 Calm 10.00 Fair CLR 51.1 48.9 92% 30.31 1026.7
20 21:53 Calm 10.00 Fair CLR 54 51.1 90% 30.32 1027.2
20 20:53 N 6 10.00 Fair CLR 55 51.1 87% 30.32 1027.2
20 19:53 NE 6 10.00 Fair CLR 57 51.1 81% 30.32 1027.0
Date Time (cdt) Wind (mph) Vis. (mi.) Weather Sky Cond. Air Dwpt Max. Min. Relative Humidity Wind Chill (°F) Heat Index (°F) altimeter (in) sea level (mb) 1 hr 3 hr 6 hr
6 hour
Temperature (ºF) Pressure Precipitation (in)